Location: 22
(39.7117°N, 89.5929°W)
Time: 07:19:08
(UTC-05:00)

Hubble Space Telescope - Pass Details

Date: 28 April 2026
Orbit: 473 x 476 km, 28.5° (Epoch: 18 May)

Event Time Altitude Azimuth Distance (km) Brightness Sun altitude
Rises 20:19:17 0° 241° (WSW) 2,506 4.7 -6.1°
Reaches altitude 10° 20:22:13 10° 217° (SW) 1,630 3.4 -6.6°
Maximum altitude 20:24:22 15° 181° (S) 1,363 2.6 -7.0°
Drops below altitude 10° 20:26:31 10° 146° (SE) 1,630 2.7 -7.4°
Enters shadow 20:27:11 - 138° (SE) 1,793 2.9 -7.5°
